Location: Chevoux
(46.3801°N, 4.9476°E)
Time: 11:49:22
(UTC+00:00)

Vanguard 2 Rocket - All Passes

Search period start: 13 May 2021 00:00
Search period end: 23 May 2021 00:00
Orbit: 554 x 3326 km, 32.9° (Epoch: 12 May)

Date Brightness Start Highest point End Pass type
(mag) Time Alt. Az. Time Alt. Az. Time Alt. Az.
13 May - 07:16:30 10° SSW 07:21:42 27° SSE 07:29:35 10° ESE daylight
13 May - 09:27:15 10° WSW 09:34:38 37° S 09:46:44 10° ESE daylight
13 May - 11:39:52 10° WSW 11:48:55 29° SSW 12:02:13 10° SSE daylight
13 May - 13:57:07 10° WSW 14:03:46 14° SW 14:11:27 10° S daylight
14 May - 06:18:37 10° SSW 06:22:29 18° SSE 06:27:40 10° ESE daylight
14 May - 08:28:28 10° SW 08:34:43 34° S 08:44:50 10° ESE daylight
14 May - 10:40:21 10° WSW 10:48:26 32° SSW 11:00:57 10° SE daylight
14 May - 12:55:11 10° WSW 13:03:03 18° SSW 13:13:03 10° S daylight
15 May - 05:22:12 10° SSE 05:23:27 11° SE 05:24:49 10° SE daylight
15 May - 07:29:56 10° SW 07:35:08 29° SSE 07:43:06 10° ESE daylight
15 May - 09:41:11 10° WSW 09:48:13 32° S 09:59:25 10° SE daylight
15 May - 11:54:36 10° WSW 12:02:27 22° SSW 12:13:14 10° SSE daylight
16 May - 06:31:42 10° SSW 06:35:48 22° SSE 06:41:33 10° ESE daylight
16 May - 08:42:17 10° WSW 08:48:18 31° S 08:57:51 10° SE daylight
16 May - 10:54:45 10° WSW 11:02:02 25° SSW 11:12:39 10° SSE daylight
16 May - 13:13:35 10° SW 13:16:30 11° SSW 13:19:40 10° SSW daylight
17 May - 05:34:00 10° S 05:36:42 15° SSE 05:39:58 10° ESE daylight
17 May - 07:43:37 10° SW 07:48:40 28° S 07:56:23 10° ESE daylight
17 May - 09:55:22 10° WSW 10:01:52 26° SSW 10:11:40 10° SE daylight
17 May - 12:10:34 10° SW 12:16:00 14° SSW 12:22:40 10° S daylight
18 May - 06:45:09 10° SW 06:49:17 23° SSE 06:55:08 10° ESE daylight
18 May - 08:56:20 10° WSW 09:01:57 27° S 09:10:32 10° SE daylight
18 May - 11:09:52 10° WSW 11:15:41 17° SSW 11:23:20 10° SSE daylight
19 May - 05:46:59 10° SSW 05:50:06 17° SSE 05:54:02 10° ESE daylight
19 May - 07:57:30 10° SW 08:02:18 25° S 08:09:25 10° SE daylight
19 May - 10:10:02 10° WSW 10:15:33 19° SSW 10:23:11 10° SSE daylight
20 May - 04:49:30 10° S 04:51:01 12° SSE 04:52:40 10° SE daylight
20 May - 06:58:53 10° SW 07:02:52 23° S 07:08:28 10° SE daylight
20 May - 09:10:42 10° WSW 09:15:40 20° S 09:22:40 10° SSE daylight
21 May - 06:00:25 10° SW 06:03:38 19° S 06:07:43 10° SE daylight
21 May - 08:11:41 10° SW 08:16:00 21° S 08:22:03 10° SE daylight
21 May - 10:26:04 10° SW 10:29:17 12° SSW 10:33:03 10° S daylight
22 May - 05:02:14 10° SSW 05:04:29 14° SSE 05:07:03 10° SE daylight
22 May - 07:12:52 10° SW 07:16:32 20° S 07:21:28 10° SE daylight
22 May - 09:25:54 10° SW 09:29:24 14° SSW 09:33:45 10° S daylight
